Regional Weather Roundup
Issued by NWS

Home | Current Version | Previous Version | Graphics & Text | Print | Product List | Glossary On
Versions: 1 2 3 4 5 6 7 8 9 10 11 12 13 14 15 16 17 18 19 20 21 22 23 24 25 26 27 28 29 30 31 32 33 34 35 36 37 38 39 40 41 42 43 44 45 46 47 48 49 50
000
ASUS43 KOAX 250310
RWRNE

WEATHER ROUNDUP FOR NEBRASKA
NATIONAL WEATHER SERVICE OMAHA NE
1000 PM CDT SAT JUN 24 2017

NOTES: SATELLITE DATA IS BEING USED TO AUGMENT CLOUD COVER ABOVE
       12000 FEET.
       "FAIR" INDICATES FEW OR NO CLOUDS BELOW 12,000 FEET WITH NO
       SIGNIFICANT WEATHER AND/OR OBSTRUCTIONS TO VISIBILITY.

  * THESE STATIONS DO NOT REPORT WEATHER SUCH AS RAIN...SNOW OR FOG.

NEZ001>004-019>022-054>056-250400-
NEBRASKA PANHANDLE

CITY           SKY/WX    TMP DP  RH WIND       PRES   REMARKS
SCOTTSBLUFF    CLEAR     62  40  44 E7        30.29R
ALLIANCE       CLEAR     58  39  49 S5        30.28R
CHADRON        PTCLDY    60  40  47 NE7       30.28R
GORDON         FAIR      56  37  48 N7        30.28R
KIMBALL        PTCLDY    62  42  47 NE6       30.33R
SIDNEY         CLEAR     56  39  53 E5        30.31R
$$

NEZ057>060-069>072-079>082-250400-
SOUTHWEST NEBRASKA

CITY           SKY/WX    TMP DP  RH WIND       PRES   REMARKS
NORTH PLATTE   CLEAR     58  36  43 CALM      30.26R
IMPERIAL       CLEAR     59  48  67 SE6       30.27R
LEXINGTON      CLEAR     65  39  38 NE3       30.25R
MCCOOK         MOCLDY    66  49  54 CALM      30.25R
OGALLALA       CLEAR     64  34  32 CALM      30.28R
$$

NEZ005>010-023>029-035>040-094-250400-
NORTH CENTRAL NEBRASKA

CITY           SKY/WX    TMP DP  RH WIND       PRES   REMARKS
VALENTINE      CLEAR     65  30  27 N8        30.26R
AINSWORTH      CLEAR     56  36  46 N9        30.25R
BROKEN BOW     MOCLDY    62  45  53 CALM      30.24R
O`NEILL        CLEAR     61  37  39 N7        30.22R
ORD            CLEAR     55  41  59 SW3       30.22R
THEDFORD       CLEAR     64  35  34 CALM      30.27R
$$

NEZ041-046>049-061>064-073>077-083>087-250400-
SOUTH CENTRAL NEBRASKA

CITY           SKY/WX    TMP DP  RH WIND       PRES   REMARKS
GRAND ISLAND   CLEAR     63  44  50 W6        30.22R
AURORA         CLEAR     60  47  62 W5        30.21R
HASTINGS       CLEAR     65  43  44 CALM      30.23S
HEBRON         CLOUDY    68  49  51 CALM      30.21R
HOLDREGE       CLOUDY    63  42  46 NE6       30.25R
KEARNEY *      CLEAR     66  37  34 CALM      30.24R
YORK           CLEAR     63  45  51 CALM      30.20R
$$

NEZ011>018-030>034-042>045-250400-
NORTHEAST NEBRASKA

CITY           SKY/WX    TMP DP  RH WIND       PRES   REMARKS
NORFOLK        CLEAR     63  38  39 NW7       30.19R
ALBION         CLEAR     58  40  50 N3        30.21R
BLAIR          CLEAR     68  40  35 N10       30.17R
FREMONT        CLEAR     67  40  37 N3        30.18R
TEKAMAH        CLEAR     61  38  42 NW8       30.16R
WAYNE          CLEAR     60  37  42 NW5       30.18R
$$

NEZ050>053-065>068-078-088>093-250400-
SOUTHEAST NEBRASKA

CITY           SKY/WX    TMP DP  RH WIND       PRES   REMARKS
LINCOLN        MOCLDY    71  42  35 W6        30.18R
OMAHA EPPLEY   PTCLDY    68  48  48 CALM      30.15R
BEATRICE       PTCLDY    64  49  58 W5        30.19R
FALLS CITY     PTCLDY    67  45  45 W9        30.16R
NEBRASKA CITY  PTCLDY    67  49  52 W7        30.17R
PLATTSMOUTH    CLEAR     67  45  44 W5        30.16R
$$

NEZ044-045-051>053-067-250400-
OMAHA AREA

CITY           SKY/WX    TMP DP  RH WIND       PRES   REMARKS
OMAHA EPPLEY   PTCLDY    68  48  48 CALM      30.15R
BLAIR          CLEAR     68  40  35 N10       30.17R
FREMONT        CLEAR     67  40  37 N3        30.18R
MILLARD        CLEAR     67  47  49 CALM      30.16R
OFFUTT AFB     CLEAR     62  47  58 NW5       30.15R
PLATTSMOUTH    CLEAR     67  45  44 W5        30.16R
WAHOO          FAIR      65  38  36 NW7       30.17R
$$




USA.gov is the U.S. government's official web portal to all federal, state and local government web resources and services.